Cloud_Cover
0 0 3 58 100 22 54 85 22 4 1 0 10 47 12 2 0 0 0 0 0 0 0 38 34 15 48 68 14 3 0 0 0 0 0 0 0 5 1 0 50 3 0
0 1 0 0 0 15 64 21 6 5 0 5 0 20 95 57 0 0 0 0 0 0 0 0 0 0 5 27 10 0 3 13 0 0 0 0 0 0 0 99 0 5 17
0 18 0 0 89 30 100 88 5 5 5 0 4 5 38 88 94 0 0 0 0 0 0 0 0 0 0 0 0 0 3 2 0 0 0 0 0 0 0 60 4 0 0
12 23 0 0 0 3 28 100 18 5 78 50 31 7 3 21 48 95 95 0 0 0 0 0 0 0 0 0 0 0 0 0 0 0 0 0 0 0 0 78 73 10 1
100 30 4 0 0 7 19 100 91 99 100 15 5 76 93 100 100 100 95 0 0 0 0 0 0 0 0 0 0 0 0 0 0 0 0 0 0 0 48 100 100 80 63
100 100 61 5 5 5 5 26 100 100 100 5 7 91 10 80 91 99 100 0 0 0 0 0 0 0 0 0 0 5 0 1 0 0 0 0 0 0 5 5 100 92 100
100 100 100 91 5 5 5 89 100 100 99 100 100 100 100 91 95 96 88 3 0 0 0 0 0 0 0 0 2 12 60 88 29 0 0 2 0 0 5 0 96 100 100
100 100 100 100 95 76 88 100 99 93 100 100 100 100 41 6 4 4 25 0 0 0 0 0 0 0 0 4 0 2 5 4 2 0 0 5 23 5 5 0 5 100 100
100 100 100 100 42 76 100 100 100 86 100 100 100 100 20 5 7 3 5 4 0 0 0 0 0 0 0 0 0 3 5 5 3 9 5 5 5 96 26 27 6 80 98
99 100 100 100 100 62 40 26 42 97 100 100 100 100 39 4 3 0 0 0 1 0 2 0 0 0 0 0 0 0 0 0 6 5 8 52 84 93 6 7 13 6 75
100 100 94 87 100 100 100 100 100 100 100 100 100 84 5 0 1 0 0 0 0 1 4 3 5 5 1 20 76 36 43 98 100 7 12 6 45 53 29 5 13 80 100
97 61 80 54 88 98 96 92 63 46 28 79 89 69 6 7 5 5 0 0 3 0 5 4 4 1 29 2 14 8 13 4 1 3 0 1 54 8 5 5 6 97 100
67 9 61 89 99 61 63 71 49 23 73 15 9 5 5 45 16 1 0 0 0 0 36 18 15 62 1 1 5 29 74 99 98 66 42 2 0 13 5 5 4 90 100
100 90 100 99 36 79 85 64 75 65 21 19 5 18 5 5 5 6 10 92 100 56 14 12 18 2 0 4 5 5 5 83 100 100 97 29 5 5 1 5 4 11 78
50 56 100 53 5 20 7 23 69 14 12 5 5 6 76 23 8 0 94 100 69 100 64 27 3 4 3 5 1 0 0 34 5 100 97 100 100 100 66 17 7 5 5
98 100 100 98 50 28 13 57 18 5 21 51 7 10 66 99 50 68 99 100 75 22 4 0 4 4 5 0 5 0 3 5 5 5 20 14 75 89 100 100 100 96 100
98 100 100 100 99 8 24 24 64 70 96 100 100 99 100 100 100 100 99 96 26 4 5 5 5 5 5 5 5 0 0 0 0 0 0 0 1 4 5 5 5 33 99
4 100 100 99 100 100 100 100 100 100 100 100 100 100 100 100 100 100 100 22 5 5 8 9 5 5 7 6 5 5 5 5 5 0 0 0 0 0 0 0 0 3 4
0 3 92 98 93 100 95 100 100 100 100 100 100 100 83 100 99 75 62 33 5 84 90 69 81 58 5 5 5 4 2 0 1 0 0 0 0 0 0 0 0 0 0
0 0 8 19 63 96 100 100 100 100 100 100 100 100 57 36 6 5 10 7 5 5 9 8 5 5 1 0 0 0 0 0 0 0 0 1 4 5 12 20 35 5 5
0 0 31 17 19 25 79 100 100 100 100 100 100 86 94 9 5 3 4 5 1 0 3 4 0 0 0 0 0 0 0 4 5 4 0 1 0 0 0 0 0 0 2
0 3 11 1 46 60 96 100 100 100 100 96 55 40 82 14 1 0 0 0 0 0 0 0 0 0 0 0 0 0 0 0 0 0 0 0 0 0 0 0 0 0 0
0 6 4 26 75 80 77 88 82 100 89 19 5 6 10 1 0 0 0 0 0 0 0 0 0 0 0 0 0 0 0 0 0 0 0 0 0 0 0 0 0 0 0
0 0 0 50 56 26 23 85 98 19 6 5 5 41 8 0 0 0 0 0 0 0 0 0 0 0 0 0 0 0 0 0 0 0 1 5 2 0 3 4 4 5 4
0 0 1 59 31 24 19 24 17 1 0 5 5 5 5 5 0 0 0 0 0 0 0 0 0 0 0 0 0 0 0 0 0 0 0 0 0 5 5 5 5 4 0
0 0 7 20 40 21 4 2 0 0 3 5 5 5 5 5 1 0 0 0 0 0 0 0 0 0 0 0 0 0 0 0 0 0 0 0 0 0 0 0 4 4 2